Location: Unspecified
(42.1900°N, 71.3291°W)
Time: 14:46:44
(UTC-04:00)

Okean 3 - Visible Passes

Search period start: 25 September 2017 00:00
Search period end: 05 October 2017 00:00
Orbit: 578 x 601 km, 82.5° (Epoch: 24 September)

Date Brightness Start Highest point End Pass type
(mag) Time Alt. Az. Time Alt. Az. Time Alt. Az.
25 Sep 6.4 03:06:18 15° NE 03:06:18 15° NE 03:07:09 10° NNE visible
25 Sep 5.5 04:42:52 17° NNW 04:42:52 17° NNW 04:44:14 10° NNW visible
26 Sep 6.3 03:14:52 15° NNE 03:14:52 15° NNE 03:15:39 10° NNE visible
26 Sep 5.8 04:51:27 12° NW 04:51:27 12° NW 04:51:52 10° NNW visible
27 Sep 6.3 03:23:25 14° NNE 03:23:25 14° NNE 03:24:01 10° NNE visible
28 Sep 6.3 03:31:56 12° N 03:31:56 12° N 03:32:16 10° N visible
